Location: Mercogliano
(40.9167°N, 14.7333°E)
Time: 21:04:31
(UTC+00:00)

CZ-2C R/B - Pass Details

Date: 18 January 2021
Orbit: 785 x 870 km, 98.2° (Epoch: 06 March)

Event Time Altitude Azimuth Distance (km) Brightness Sun altitude
Exits shadow 20:05:33 14° 288° (WNW) 2,252 5.4 -45.7°
Drops below altitude 10° 20:07:18 10° 270° (W) 2,500 5.7 -46.0°
Sets 20:10:51 0° 247° (WSW) 3,442 6.4 -46.6°
